カタログに戻る

STARLINK-32470

運用中通信VLEO
NORAD 62115·PAYLOAD·🇺🇸 United States

打ち上げ Nov 27, 2024 から Cape Canaveral Space Force Station

Loading…

次のパス (今後24時間)

TLE

最新Source: CelesTrak SupGP

元期: Sep 14, 2026, 22:40 UTC

1 62115C 24222B   26257.94493056 -.00216910  00000+0 -78520-2 0  2570
2 62115  43.0005 147.2012 0001278 271.2438 143.2287 15.27705622    16

AllMySatでSTARLINK-32470をリアルタイム追跡

Download on the App Store